This demonstration page uses our WeatherBlox Daily Observations layout. Learn more.

Left ArrowRight Arrow

39.08367, -84.50855

Hourly Observations for January 29, 2015

Temp ( °F °C ) Dew Point ( °F °C ) Humidity (%) Winds ( mph kmh ) Pressure ( in mb ) Visibility ( mi km ) Precip ( " mm )
12:53 am 00:53 Clear 30 -1.1 19 -7.2 64 64 SSE 6 9 30.16 1021 10 16.0934 0 0
1:53 am 01:53 Clear 32 0 20 -6.7 61 61 VRB 5 7 30.12 1020 10 16.0934 0 0
2:53 am 02:53 Clear 32 0 20 -6.7 61 61 S 7 11 30.1 1019 10 16.0934 0 0
3:53 am 03:53 Clear 32 0 21 -6.1 64 64 S 10 17 30.05 1018 10 16.0934 0 0
4:53 am 04:53 Cloudy 34 1.1 21 -6.1 59 59 S 10 17 30.01 1016 10 16.0934 0 0
5:53 am 05:53 Cloudy with Rain 34 1.1 26 -3.3 73 73 S 8 13 29.98 1015 6 9.65604 0.02 0.508
6:53 am 06:53 Cloudy 34 1.1 29 -1.7 82 82 S 10 17 29.93 1014 10 16.0934 0.06 1.524
7:53 am 07:53 Cloudy with Light Rain 35 1.7 30 -1.1 82 82 S 10 17 29.92 1013 10 16.0934 0 0.0254
8:53 am 08:53 Cloudy 37 2.8 32 0 82 82 SSW 8 13 29.91 1013 10 16.0934 0 0.0254
9:53 am 09:53 Mostly Sunny 42 5.6 35 1.7 76 76 SSW 9 15 29.89 1012 10 16.0934 0 0
10:53 am 10:53 Mostly Sunny 48 8.9 36 2.2 63 63 SSW 18 30 29.86 1011 10 16.0934 0 0
11:53 am 11:53 Cloudy 49 9.4 37 2.8 64 64 SW 18 30 29.86 1011 10 16.0934 0 0
12:53 pm 12:53 Cloudy 49 9.4 37 2.8 64 64 SW 13 20 29.84 1011 10 16.0934 0 0
1:53 pm 13:53 Cloudy 48 8.9 37 2.8 66 66 WSW 24 39 29.86 1011 10 16.0934 0 0
2:23 pm 14:23 Cloudy 46 7.8 37 2.8 71 71 WSW 24 39 29.91 1013 10 16.0934 0 0
2:53 pm 14:53 Cloudy 44 6.7 36 2.2 73 73 W 17 28 29.92 1013 9 14.48406 0 0
3:53 pm 15:53 Cloudy 40 4.4 33 0.6 77 77 W 22 35 29.97 1015 9 14.48406 0 0
4:53 pm 16:53 Cloudy 38 3.3 32 0 79 79 WNW 18 30 30.03 1017 10 16.0934 0 0
5:53 pm 17:53 Cloudy 36 2.2 31 -0.6 82 82 W 16 26 30.08 1019 10 16.0934 0 0.0254
6:53 pm 18:53 Cloudy 36 2.2 31 -0.6 82 82 WNW 13 20 30.11 1020 10 16.0934 0 0
7:53 pm 19:53 Cloudy 35 1.7 31 -0.6 85 85 W 13 20 30.14 1021 7 11.26538 0 0
8:51 pm 20:51 Cloudy 36 2 30 -1 81 81 WNW 9 15 30.15 1021 8 12.87472 0 0
8:53 pm 20:53 Cloudy 35 1.7 30 -1.1 82 82 WNW 8 13 30.16 1022 8 12.87472 0 0
9:13 pm 21:13 Cloudy 35 1.7 30 -1.1 82 82 WNW 10 17 30.15 1021 8 12.87472 0 0
9:53 pm 21:53 Cloudy 35 1.7 29 -1.7 78 78 W 9 15 30.19 1022 9 14.48406 0 0.0254
10:53 pm 22:53 Cloudy 34 1.1 29 -1.7 82 82 WNW 9 15 30.21 1023 9 14.48406 0 0
11:17 pm 23:17 Cloudy 34 1.1 29 -1.7 82 82 W 6 9 30.24 1024 9 14.48406 0 0
11:53 pm 23:53 Cloudy 34 1.1 28 -2.2 79 79 WNW 12 19 30.22 1023 9 14.48406 0 0

Powered by AerisWeather